| time (UTC) | temp F | wind direction | speed MPH | gust MPH | rain 1hr in | rain 24hr in | rain mn in | humidity % | barometer mb |
| 20260905160105 | 52 | 225 | 0.0 | 2.0 | 0.00 | 0.00 | 0.00 | 94 | 1019.1 |
| 20260905154605 | 51 | 225 | 0.0 | 0.0 | 0.00 | 0.00 | 0.00 | 97 | 1019.1 |
| 20260905153031 | 51 | 225 | 0.0 | 0.0 | 0.00 | 0.00 | 0.00 | 98 | 1019.1 |
| 20260905151530 | 50 | 231 | 0.0 | 2.0 | 0.00 | 0.00 | 0.00 | 99 | 1019.1 |
| 20260905150105 | 49 | 230 | 0.0 | 3.0 | 0.00 | 0.00 | 0.00 | 99 | 1019.0 |
| 20260905144605 | 49 | 183 | 0.0 | 3.0 | 0.00 | 0.00 | 0.00 | 99 | 1018.9 |
| 20260905141532 | 49 | 180 | 0.0 | 1.0 | 0.00 | 0.00 | 0.00 | 99 | 1018.8 |
| 20260905140031 | 48 | 199 | 3.0 | 5.0 | 0.00 | 0.00 | 0.00 | 99 | 1018.6 |
| 20260905134530 | 48 | 250 | 1.0 | 4.0 | 0.00 | 0.00 | 0.00 | 99 | 1018.5 |
| 20260905131646 | 47 | 160 | 0.0 | 3.0 | 0.00 | 0.00 | 0.00 | 99 | 1018.2 |
| 20260905130031 | 48 | 157 | 0.0 | 2.0 | 0.00 | 0.00 | 0.00 | 99 | 1018.2 |
| 20260905124602 | 48 | 157 | 0.0 | 0.0 | 0.00 | 0.00 | 0.00 | 98 | 1018.3 |
| 20260905121529 | 48 | 112 | 0.0 | 0.0 | 0.00 | 0.00 | 0.00 | 98 | 1018.3 |
| 20260905120104 | 48 | 125 | 1.0 | 4.0 | 0.00 | 0.00 | 0.00 | 98 | 1018.4 |
| 20260905114532 | 48 | 336 | 0.0 | 3.0 | 0.00 | 0.00 | 0.00 | 98 | 1018.2 |
| 20260905110028 | 49 | 337 | 0.0 | 0.0 | 0.00 | 0.00 | 0.00 | 98 | 1018.1 |
| 20260905104530 | 49 | 337 | 0.0 | 0.0 | 0.00 | 0.00 | 0.00 | 98 | 1018.1 |
| 20260905103032 | 49 | 337 | 0.0 | 0.0 | 0.00 | 0.00 | 0.00 | 97 | 1018.1 |
| 20260905094530 | 50 | 34 | 0.0 | 2.0 | 0.00 | 0.00 | 0.00 | 97 | 1018.1 |
| 20260905093031 | 50 | 47 | 0.0 | 0.0 | 0.00 | 0.00 | 0.00 | 97 | 1018.2 |
| 20260905091531 | 50 | 90 | 0.0 | 4.0 | 0.00 | 0.00 | 0.00 | 97 | 1018.1 |
| 20260905090031 | 51 | 337 | 0.0 | 0.0 | 0.00 | 0.00 | 0.00 | 97 | 1018.1 |
| 20260905084530 | 51 | 337 | 0.0 | 0.0 | 0.00 | 0.00 | 0.00 | 97 | 1018.0 |
| 20260905083104 | 51 | 337 | 0.0 | 1.0 | 0.00 | 0.00 | 0.00 | 97 | 1017.9 |
| 20260905081530 | 51 | 337 | 0.0 | 0.0 | 0.00 | 0.00 | 0.00 | 96 | 1017.9 |
| 20260905080032 | 51 | 337 | 0.0 | 0.0 | 0.00 | 0.00 | 0.00 | 96 | 1017.8 |
| 20260905074531 | 51 | 337 | 0.0 | 0.0 | 0.00 | 0.00 | 0.00 | 96 | 1017.6 |
| 20260905063105 | 52 | 74 | 0.0 | 2.0 | 0.00 | 0.00 | 0.00 | 93 | 1017.1 |
| 20260905054531 | 52 | 116 | 1.0 | 4.0 | 0.00 | 0.00 | 0.00 | 94 | 1017.3 |
| 20260905053031 | 52 | 112 | 0.0 | 3.0 | 0.00 | 0.00 | 0.00 | 94 | 1017.2 |
| 20260905051530 | 51 | 79 | 0.0 | 3.0 | 0.00 | 0.00 | 0.00 | 93 | 1017.2 |
| 20260905050030 | 52 | 67 | 0.0 | 0.0 | 0.00 | 0.00 | 0.00 | 93 | 1017.2 |
| 20260905044530 | 52 | 67 | 0.0 | 0.0 | 0.00 | 0.00 | 0.00 | 92 | 1017.1 |
| 20260905043031 | 52 | 67 | 0.0 | 0.0 | 0.00 | 0.00 | 0.00 | 92 | 1017.0 |
| 20260905041530 | 52 | 93 | 1.0 | 5.0 | 0.00 | 0.00 | 0.00 | 92 | 1016.9 |
| 20260905040107 | 52 | 135 | 0.0 | 0.0 | 0.00 | 0.00 | 0.00 | 91 | 1016.9 |
| 20260905034533 | 52 | 135 | 0.0 | 0.0 | 0.00 | 0.00 | 0.00 | 90 | 1016.7 |
| 20260905033031 | 52 | 135 | 0.0 | 0.0 | 0.00 | 0.00 | 0.00 | 89 | 1016.6 |
| 20260905031529 | 53 | 135 | 0.0 | 0.0 | 0.00 | 0.00 | 0.00 | 88 | 1016.4 |
| 20260905030105 | 54 | 143 | 0.0 | 2.0 | 0.00 | 0.00 | 0.00 | 86 | 1016.4 |
| 20260905024531 | 55 | 193 | 0.0 | 2.0 | 0.00 | 0.00 | 0.00 | 84 | 1016.4 |
| 20260905021532 | 58 | 22 | 3.0 | 6.0 | 0.00 | 0.00 | 0.00 | 76 | 1016.4 |
| 20260905020032 | 59 | 9 | 4.0 | 6.0 | 0.00 | 0.00 | 0.00 | 75 | 1016.2 |
| 20260905014531 | 59 | 5 | 4.0 | 6.0 | 0.00 | 0.00 | 0.00 | 75 | 1016.0 |
| 20260905011529 | 59 | 13 | 3.0 | 6.0 | 0.00 | 0.00 | 0.00 | 73 | 1015.8 |
| 20260905010030 | 61 | 12 | 3.0 | 8.0 | 0.00 | 0.00 | 0.00 | 68 | 1015.7 |
| 20260905004527 | 61 | 156 | 1.0 | 3.0 | 0.00 | 0.00 | 0.00 | 66 | 1015.6 |
| 20260905003033 | 61 | 173 | 2.0 | 5.0 | 0.00 | 0.00 | 0.00 | 70 | 1015.5 |
| 20260905001534 | 61 | 167 | 2.0 | 4.0 | 0.00 | 0.00 | 0.00 | 73 | 1015.4 |
| 20260904234532 | 61 | 112 | 0.0 | 2.0 | 0.00 | 0.00 | 0.00 | 73 | 1015.4 |
| 20260904231646 | 60 | 133 | 2.0 | 3.0 | 0.00 | 0.00 | 0.00 | 78 | 1015.5 |
| 20260904223031 | 58 | 188 | 2.0 | 6.0 | 0.00 | 0.00 | 0.00 | 82 | 1015.4 |
| 20260904220030 | 60 | 174 | 3.0 | 9.0 | 0.00 | 0.00 | 0.00 | 69 | 1015.2 |
| 20260904214533 | 60 | 199 | 1.0 | 4.0 | 0.00 | 0.00 | 0.00 | 69 | 1015.1 |
| 20260904213030 | 60 | 226 | 2.0 | 5.0 | 0.00 | 0.00 | 0.00 | 71 | 1015.0 |
| 20260904211532 | 59 | 230 | 2.0 | 5.0 | 0.00 | 0.00 | 0.00 | 73 | 1014.9 |
| 20260904210029 | 59 | 245 | 2.0 | 5.0 | 0.00 | 0.00 | 0.00 | 74 | 1014.8 |
| 20260904204530 | 59 | 254 | 3.0 | 6.0 | 0.00 | 0.00 | 0.00 | 75 | 1014.8 |
| 20260904200031 | 58 | 270 | 3.0 | 5.0 | 0.00 | 0.00 | 0.00 | 78 | 1015.1 |
| 20260904191530 | 57 | 192 | 2.0 | 4.0 | 0.00 | 0.00 | 0.00 | 82 | 1015.3 |
| 20260904190031 | 56 | 159 | 2.0 | 4.0 | 0.00 | 0.00 | 0.00 | 83 | 1015.4 |
| 20260904184533 | 55 | 194 | 2.0 | 6.0 | 0.00 | 0.00 | 0.00 | 85 | 1015.4 |
| 20260904183031 | 55 | 201 | 1.0 | 5.0 | 0.00 | 0.00 | 0.00 | 86 | 1015.3 |
| 20260904181532 | 54 | 283 | 0.0 | 2.0 | 0.00 | 0.00 | 0.00 | 88 | 1015.2 |
| 20260904180027 | 53 | 212 | 0.0 | 3.0 | 0.00 | 0.00 | 0.00 | 90 | 1015.2 |
| 20260904174530 | 52 | 180 | 0.0 | 2.0 | 0.00 | 0.00 | 0.00 | 92 | 1015.1 |
| 20260904173031 | 52 | 193 | 3.0 | 5.0 | 0.00 | 0.00 | 0.00 | 92 | 1015.2 |
| 20260904164529 | 52 | 222 | 2.0 | 5.0 | 0.00 | 0.00 | 0.00 | 94 | 1015.0 |
| 20260904163032 | 52 | 34 | 1.0 | 3.0 | 0.00 | 0.00 | 0.00 | 96 | 1015.0 |